Location: Centerville
(32.8776°N, 96.6203°W)
Time: 00:20:44
(UTC+00:00)

IRS-1A Rocket - Pass Details

Date: 17 June 2021
Orbit: 851 x 932 km, 99.2° (Epoch: 01 August)

Event Time Altitude Azimuth Distance (km) Brightness Sun altitude
Exits shadow 02:34:42 - 158° (SSE) 2,701 6.3 -11.0°
Reaches altitude 10° 02:34:53 10° 157° (SSE) 2,626 6.2 -11.0°
Maximum altitude 02:40:44 72° 74° (ENE) 968 4.4 -12.0°
Drops below altitude 10° 02:46:33 10° 351° (N) 2,609 7.5 -13.0°
Sets 02:48:58 0° 350° (N) 3,543 8.3 -13.4°
